[[{"header":{"parameterUnit":"m.s-1","parameterCategory":1,"la1":30.2991,"la2":30.254,"lo1":-89.0895,"lo2":-89.0444,"dy":0.0017,"dx":0.0017,"nx":28,"ny":28,"refTime":"2024-12-22T03:00:00:Z","depth":0,"parameterNumber":2,"parameterNumberName":"U-component_of_WINDS"},"data":[0,0,0,0,0,0,0,0,0,0,0,0,0,0,0,0,0,0,0,0,0,0,0,0,0,0,0,0,0,0,0,0,0,0,0,0,0,0,0,0,0,0,0,0,0,0,0,0,0,0,0,0,0,0,0,0,0,0,-2.2357,-2.2358,0,-2.2411,-2.2412,-2.2413,-2.2363,-2.2361,-2.2359,-2.2357,-2.2413,-2.2417,-2.242,0,0,0,0,0,0,0,0,0,0,0,0,0,-2.2209,-2.2212,-2.2357,-2.2358,-2.2358,-2.2411,-2.2412,-2.2413,-2.2363,-2.2361,-2.2358,-2.2356,-2.2412,-2.2416,-2.242,0,0,0,0,0,0,0,0,0,0,0,0,0,-2.227,-2.2213,-2.2357,-2.234,-2.2339,-2.2411,-2.2412,-2.2413,-2.2364,-2.2361,-2.2358,-2.2355,-2.2411,-2.2416,-2.2421,-2.2513,0,0,-2.2436,-2.2439,0,0,0,0,0,0,0,0,-2.2266,-2.2275,-2.2342,-2.2341,-2.234,-2.2377,-2.2381,-2.2447,-2.2364,-2.2354,-2.2357,-2.2353,-2.2404,-2.2409,-2.2426,-2.2516,-2.2518,-2.2437,-2.244,-2.2442,-2.2444,0,0,0,0,0,0,0,-2.2262,-2.2273,-2.2378,-2.2343,-2.2342,-2.2329,-2.2335,-2.2393,-2.2395,-2.2355,-2.2351,-2.2359,-2.2403,-2.2421,-2.2427,-2.2519,-2.2437,-2.2441,-2.2444,-2.2446,-2.2685,-2.2688,0,0,0,0,0,0,-2.226,-2.2269,-2.2377,-2.238,-2.2295,-2.2335,-2.234,-2.2368,-2.2395,-2.2396,-2.2361,-2.2356,-2.2414,-2.2421,-2.2429,-2.2538,-2.2442,-2.2447,-2.245,-2.2682,-2.2686,-2.2689,0,0,0,0,0,0,-2.2257,-2.227,-2.2375,-2.2324,-2.2336,-2.234,-2.2372,-2.2371,-2.239,-2.2399,-2.2399,-2.238,-2.2412,-2.2422,-2.2492,-2.2539,-2.2449,-2.2454,-2.2678,-2.2683,-2.2688,-2.2756,0,0,0,0,0,0,-2.2253,-2.2269,-2.2304,-2.2325,-2.2339,-2.2437,-2.2375,-2.2374,-2.2398,-2.2392,-2.2417,-2.2418,-2.2411,-2.2485,-2.2497,-2.2544,-2.2458,-2.2674,-2.268,-2.2686,-2.275,-2.2763,-2.2774,0,0,0,0,0,-2.2248,-2.2322,-2.2306,-2.232,-2.2383,-2.244,-2.2448,-2.2438,-2.2402,-2.2438,-2.2444,-2.2417,-2.2532,-2.2492,-2.2506,-2.2555,-2.2671,-2.2678,-2.2686,-2.2744,-2.276,-2.2774,0,0,0,0,0,0,-2.2307,-2.2324,-2.2307,-2.239,-2.2414,-2.2431,-2.2475,-2.2455,-2.2489,-2.2482,-2.2468,-2.2474,-2.2548,-2.2559,-2.2515,-2.2645,-2.2596,-2.2606,-2.2635,-2.2651,-2.2663,-2.2658,-2.2462,0,0,0,0,0,-2.233,-2.2374,-2.2387,-2.2459,-2.2472,-2.2472,-2.2496,-2.2486,-2.251,-2.252,-2.2531,-2.2555,-2.2597,-2.2624,-2.2663,-2.2751,-2.2755,-2.2791,-2.2804,-2.2813,-2.2823,-2.2869,-2.2885,-2.2714,-2.2714,-2.2714,0,0,-2.2377,-2.2392,-2.2421,-2.2471,-2.2488,-2.2534,-2.248,-2.2532,-2.2566,-2.2528,-2.2594,-2.2604,-2.263,-2.2709,-2.2744,-2.272,-2.2871,-2.2823,-2.2831,-2.2834,-2.2878,-2.2894,-2.2909,-2.2719,-2.2718,-2.2717,0,0,-2.2487,-2.2503,-2.2564,-2.2582,-2.2609,-2.2608,-2.2623,-2.2643,-2.2647,-2.2714,-2.2686,-2.2726,-2.2798,-2.2818,-2.2837,-2.2953,-2.293,-2.2966,-2.303,-2.3075,-2.3088,-2.31,-2.3141,-2.3155,-2.2975,-2.2975,-2.2976,0,-2.2543,-2.2611,-2.2598,-2.2652,-2.2674,-2.2641,-2.2702,-2.2721,-2.2759,-2.2775,-2.2747,-2.2835,-2.2851,-2.2934,-2.2962,-2.2979,-2.2995,-2.2963,-2.3087,-2.3099,-2.311,-2.3148,-2.3164,-2.298,-2.2979,-2.2979,-2.2978,0,-2.2678,-2.2726,-2.2772,-2.2808,-2.2836,-2.2894,-2.2889,-2.2919,-2.2906,-2.2908,-2.2976,-2.2993,-2.3034,-2.3053,-2.3042,-2.3134,-2.3118,-2.3089,-2.3039,-2.3131,-2.3166,-2.3181,-2.2986,-2.2984,-2.2983,-2.2982,0,0,-2.2827,-2.2855,-2.2872,-2.2888,-2.2914,-2.2951,-2.3006,-2.3046,-2.3071,-2.3098,-2.3144,-2.3205,-2.3178,-2.32,-2.319,-2.323,-2.332,-2.3196,-2.3196,-2.3217,-2.3421,-2.3443,-2.346,-2.3304,-2.3307,-2.3309,-2.3419,0,-2.2937,-2.3033,-2.3023,-2.3114,-2.3157,-2.3126,-2.3174,-2.3195,-2.3199,-2.3236,-2.324,-2.3283,-2.3244,-2.3257,-2.3295,-2.3301,-2.336,-2.3293,-2.3346,-2.3348,-2.334,-2.3479,-2.3502,-2.3605,-2.3433,-2.3435,-2.3437,0,-2.3078,-2.311,-2.3205,-2.3224,-2.3241,-2.3285,-2.332,-2.3356,-2.3379,-2.3379,-2.3403,-2.3386,-2.3441,-2.339,-2.3466,-2.342,-2.3441,-2.3447,-2.3451,-2.3455,-2.3398,-2.3486,-2.3637,-2.3653,-2.3459,-2.3458,-2.3456,0,-2.3177,-2.3243,-2.3308,-2.3323,-2.3346,-2.3377,-2.3388,-2.3408,-2.3432,-2.3463,-2.3478,-2.3515,-2.3536,-2.3564,-2.3558,-2.3521,-2.3635,-2.3583,-2.3635,-2.3636,-2.366,-2.3659,-2.3816,-2.3675,-2.3675,-2.3675,-2.3675,0,-2.33,-2.336,-2.3352,-2.3392,-2.3458,-2.3445,-2.351,-2.3517,-2.3535,-2.3576,-2.3552,-2.3591,-2.358,-2.3618,-2.3613,-2.3676,-2.3686,-2.3686,-2.3684,-2.3688,-2.3688,-2.3702,-2.3694,-2.3679,-2.3678,-2.3677,-2.3677,0,-2.3421,-2.3419,-2.3487,-2.3504,-2.3509,-2.3556,-2.357,-2.3608,-2.3609,-2.3661,-2.3672,-2.3674,-2.3718,-2.3714,-2.3763,-2.376,-2.3837,-2.3827,-2.3829,-2.3827,-2.3879,-2.3874,-2.405,-2.4072,-2.3918,-2.3919,-2.392,0,-2.35,-2.3545,-2.3565,-2.3591,-2.3604,-2.3645,-2.3669,-2.3658,-2.3685,-2.3714,-2.3748,-2.3789,-2.3821,-2.3893,-2.3898,-2.3936,-2.3926,-2.3985,-2.3931,-2.3934,-2.3926,-2.3923,-2.3927,-2.3996,-2.3997,-2.3999,-2.4,0,-2.364,-2.3636,-2.3672,-2.3707,-2.3737,-2.3764,-2.3789,-2.3811,-2.3802,-2.3833,-2.3877,-2.3902,-2.3952,-2.3993,-2.4028,-2.404,-2.4019,-2.4017,-2.4031,-2.4035,-2.4034,-2.4034,-2.3858,-2.4013,-2.4011,-2.401,-2.401,-2.4009,-2.3742,-2.378,-2.38,-2.384,-2.3857,-2.3881,-2.3916,-2.3922,-2.3958,-2.3997,-2.3989,-2.4038,-2.4059,-2.4104,-2.4119,-2.4157,-2.4136,-2.4156,-2.4161,-2.4167,-2.4172,-2.4028,-2.4164,-2.4164,-2.4163,-2.4163,-2.4163,0,-2.388,-2.3891,-2.3928,-2.3963,-2.3995,-2.3971,-2.3997,-2.4025,-2.4069,-2.409,-2.4122,-2.4172,-2.4212,-2.422,-2.4258,-2.4287,-2.4278,-2.4297,-2.4295,-2.4298,-2.419,-2.4173,-2.4304,-2.4304,-2.4304,-2.4304,-2.4304,-2.4304,-2.3955,-2.4018,-2.4016,-2.4087,-2.4097,-2.4145,-2.4162,-2.4183,-2.42,-2.4257,-2.4289,-2.4294,-2.431,-2.4349,-2.4384,-2.4385,-2.44,-2.4423,-2.4421,-2.4319,-2.4305,-2.4292,-2.4276,-2.4426,-2.4426,-2.4525,-2.4526,-2.4527]},{"header":{"parameterUnit":"m.s-1","parameterCategory":1,"la1":30.2991,"la2":30.254,"lo1":-89.0895,"lo2":-89.0444,"dy":0.0017,"dx":0.0017,"nx":28,"ny":28,"refTime":"2024-12-22T03:00:00:Z","depth":0,"parameterNumber":3,"parameterNumberName":"V-component_of_WINDS"},"data":[0,0,0,0,0,0,0,0,0,0,0,0,0,0,0,0,0,0,0,0,0,0,0,0,0,0,0,0,0,0,0,0,0,0,0,0,0,0,0,0,0,0,0,0,0,0,0,0,0,0,0,0,0,0,0,0,0,0,-2.9387,-2.9388,0,-2.9456,-2.9457,-2.9458,-2.9445,-2.9443,-2.9442,-2.9441,-2.9508,-2.9511,-2.9514,0,0,0,0,0,0,0,0,0,0,0,0,0,-2.924,-2.9242,-2.9387,-2.9388,-2.9389,-2.9456,-2.9457,-2.9458,-2.9445,-2.9443,-2.9442,-2.944,-2.9507,-2.9511,-2.9514,0,0,0,0,0,0,0,0,0,0,0,0,0,-2.9306,-2.9243,-2.9387,-2.9391,-2.9392,-2.9456,-2.9457,-2.9458,-2.9445,-2.9443,-2.9441,-2.944,-2.9506,-2.951,-2.9515,-2.9579,0,0,-2.9528,-2.953,0,0,0,0,0,0,0,0,-2.9302,-2.9311,-2.9389,-2.939,-2.9392,-2.944,-2.943,-2.9499,-2.9446,-2.9425,-2.9441,-2.9439,-2.9487,-2.9493,-2.951,-2.9582,-2.9585,-2.9529,-2.9531,-2.9533,-2.9534,0,0,0,0,0,0,0,-2.9297,-2.9308,-2.9414,-2.939,-2.9392,-2.9387,-2.9395,-2.9443,-2.9465,-2.9426,-2.9426,-2.9434,-2.9487,-2.9505,-2.9511,-2.9586,-2.9529,-2.9532,-2.9535,-2.9537,-2.9712,-2.9714,0,0,0,0,0,0,-2.9292,-2.9304,-2.9412,-2.9417,-2.9341,-2.9391,-2.94,-2.9426,-2.9465,-2.9469,-2.9436,-2.9433,-2.9499,-2.9506,-2.9513,-2.959,-2.9533,-2.9537,-2.954,-2.971,-2.9713,-2.9715,0,0,0,0,0,0,-2.9289,-2.9302,-2.9409,-2.936,-2.9374,-2.9396,-2.9426,-2.9429,-2.9447,-2.9472,-2.9475,-2.9451,-2.9498,-2.9507,-2.9562,-2.9592,-2.9539,-2.9543,-2.9708,-2.9711,-2.9714,-2.9743,0,0,0,0,0,0,-2.9285,-2.9301,-2.9327,-2.9361,-2.9376,-2.9459,-2.9428,-2.9431,-2.9455,-2.9453,-2.9487,-2.949,-2.9497,-2.9556,-2.9567,-2.9597,-2.9547,-2.9705,-2.9709,-2.9713,-2.974,-2.9747,-2.9753,0,0,0,0,0,-2.928,-2.9332,-2.9328,-2.9341,-2.9409,-2.9461,-2.9469,-2.9477,-2.9457,-2.9483,-2.9498,-2.9489,-2.9587,-2.9562,-2.9574,-2.9606,-2.9703,-2.9708,-2.9712,-2.9737,-2.9745,-2.9753,0,0,0,0,0,0,-2.93,-2.9337,-2.9333,-2.9398,-2.9426,-2.9458,-2.949,-2.9486,-2.952,-2.9516,-2.9522,-2.953,-2.9586,-2.9601,-2.9573,-2.9669,-2.9642,-2.9649,-2.9656,-2.9665,-2.9672,-2.9666,-2.955,0,0,0,0,0,-2.9312,-2.9352,-2.9381,-2.9436,-2.9451,-2.9468,-2.9491,-2.9494,-2.9523,-2.9535,-2.9555,-2.9582,-2.9619,-2.9643,-2.9678,-2.9742,-2.9748,-2.977,-2.9776,-2.9782,-2.9787,-2.982,-2.983,-2.973,-2.973,-2.973,0,0,-2.9337,-2.9362,-2.9387,-2.9441,-2.9463,-2.9503,-2.9478,-2.9522,-2.9551,-2.9541,-2.9594,-2.961,-2.9641,-2.97,-2.9727,-2.9715,-2.9816,-2.9787,-2.9791,-2.9794,-2.9826,-2.9835,-2.9844,-2.9733,-2.9732,-2.9732,0,0,-2.9403,-2.9427,-2.9474,-2.9497,-2.9532,-2.9543,-2.9554,-2.9587,-2.9597,-2.965,-2.9644,-2.9677,-2.9741,-2.9763,-2.9783,-2.9855,-2.9848,-2.9867,-2.9901,-2.9933,-2.9941,-2.9948,-2.9972,-2.9981,-2.9872,-2.9873,-2.9873,0,-2.943,-2.9491,-2.9499,-2.9543,-2.9566,-2.956,-2.9606,-2.9628,-2.9672,-2.9687,-2.9672,-2.9751,-2.9772,-2.9835,-2.9853,-2.9869,-2.9881,-2.9862,-2.9939,-2.9946,-2.9953,-2.9976,-2.9985,-2.9875,-2.9874,-2.9874,-2.9874,0,-2.9521,-2.9563,-2.9597,-2.964,-2.9666,-2.9712,-2.9725,-2.9751,-2.9751,-2.9763,-2.9817,-2.9842,-2.9881,-2.9896,-2.9897,-2.996,-2.995,-2.9938,-2.9911,-2.9964,-2.9986,-2.9995,-2.9877,-2.9877,-2.9876,-2.9876,0,0,-2.9601,-2.9648,-2.966,-2.9679,-2.9716,-2.9748,-2.9791,-2.9831,-2.9852,-2.9882,-2.9918,-2.9971,-2.9959,-2.9981,-2.9984,-3.0013,-3.0066,-2.9996,-2.9997,-3.0007,-3.0134,-3.0143,-3.0153,-3.0062,-3.0064,-3.0065,-3.0131,0,-2.967,-2.9749,-2.9756,-2.9826,-2.9864,-2.9858,-2.9896,-2.9922,-2.9934,-2.9967,-2.998,-3.0017,-2.9999,-3.0012,-3.004,-3.0054,-3.0092,-3.005,-3.0093,-3.0095,-3.0085,-3.0165,-3.0174,-3.0235,-3.014,-3.0141,-3.0142,0,-2.976,-2.9793,-2.9867,-2.9897,-2.9913,-2.9947,-2.9983,-3.0015,-3.0043,-3.005,-3.0074,-3.0073,-3.0116,-3.0089,-3.0148,-3.0119,-3.0137,-3.0146,-3.0149,-3.0152,-3.0121,-3.0169,-3.0255,-3.0264,-3.0156,-3.0155,-3.0154,0,-2.9809,-2.9872,-2.9924,-2.9941,-2.9978,-3.0001,-3.0018,-3.0044,-3.0067,-3.0098,-3.0112,-3.0147,-3.0166,-3.0193,-3.02,-3.018,-3.0258,-3.0232,-3.0263,-3.0263,-3.0279,-3.0278,-3.0368,-3.0293,-3.0293,-3.0293,-3.0293,0,-2.9884,-2.9929,-2.9947,-2.9979,-3.0028,-3.0036,-3.0084,-3.0099,-3.0122,-3.0156,-3.0153,-3.0183,-3.0193,-3.0225,-3.0231,-3.0277,-3.0286,-3.0292,-3.0292,-3.0291,-3.029,-3.0302,-3.0298,-3.0295,-3.0295,-3.0294,-3.0294,0,-2.9948,-2.9962,-3.0017,-3.0048,-3.0056,-3.0091,-3.0116,-3.0146,-3.0157,-3.0199,-3.0209,-3.0227,-3.0264,-3.0275,-3.032,-3.0324,-3.0378,-3.0375,-3.0368,-3.0368,-3.0398,-3.0395,-3.0499,-3.0512,-3.043,-3.043,-3.0431,0,-2.9994,-3.0028,-3.0062,-3.0085,-3.0102,-3.0138,-3.0161,-3.017,-3.0194,-3.0228,-3.0253,-3.029,-3.032,-3.0379,-3.0395,-3.0429,-3.0426,-3.046,-3.0431,-3.0428,-3.0425,-3.0422,-3.0425,-3.0466,-3.0466,-3.0467,-3.0468,0,-3.0074,-3.0079,-3.0113,-3.0149,-3.0176,-3.0205,-3.0232,-3.025,-3.0262,-3.0289,-3.0327,-3.0351,-3.0396,-3.0432,-3.0466,-3.0481,-3.0476,-3.0477,-3.0486,-3.0484,-3.0478,-3.048,-3.0382,-3.0474,-3.0474,-3.0473,-3.0473,-3.0473,-3.0129,-3.0159,-3.0187,-3.0224,-3.0246,-3.0271,-3.03,-3.0315,-3.0347,-3.0386,-3.0388,-3.043,-3.0455,-3.05,-3.0517,-3.0548,-3.0538,-3.0551,-3.0554,-3.0557,-3.0559,-3.0474,-3.0555,-3.0554,-3.0554,-3.0554,-3.0554,0,-3.0207,-3.0225,-3.0259,-3.0298,-3.0327,-3.032,-3.035,-3.0374,-3.041,-3.0435,-3.0465,-3.0508,-3.0543,-3.0561,-3.0595,-3.0616,-3.0615,-3.0625,-3.0623,-3.0626,-3.0567,-3.0555,-3.0626,-3.0626,-3.0626,-3.0626,-3.0626,-3.0626,-3.0252,-3.0301,-3.0309,-3.0368,-3.0385,-3.0426,-3.0443,-3.0466,-3.0485,-3.0534,-3.0563,-3.0575,-3.0597,-3.0632,-3.0663,-3.0667,-3.0679,-3.0691,-3.0693,-3.0638,-3.063,-3.0623,-3.0612,-3.0694,-3.0694,-3.075,-3.075,-3.0751]}]]